Weather History for Fort Knox, KY

Change the Weather History Date:

Friday, March 15, 2013

  Actual Average Record
Temperature  
Mean Temperature 49 °F -  
Max Temperature 66 °F 52 °F 81 °F (2012)
Min Temperature 32 °F 33 °F 21 °F (1997)
Degree Days  
Heating Degree Days 16    
Moisture  
Dew Point 36 °F    
Average Humidity 66    
Maximum Humidity 89    
Minimum Humidity 40    
Precipitation  
Precipitation 0.00 in - - ()
Sea Level Pressure  
Sea Level Pressure 29.98 in    
Wind  
Wind Speed 6 mph (SSW)    
Max Wind Speed 10 mph    
Max Gust Speed 17 mph    
Visibility 10 miles    
Events      
Averages and records for this station are not official NWS values.
T = Trace of Precipitation, MM = Missing Value Source: NWS Daily Summary

Daily Weather History Graph

Daily Weather History Graph

Search for Another Location

Airport:

Trip Planner

Search our weather history database for the weather conditions in past years. The results will help you decide how hot, cold, wet, or windy it might be!

Date:

Astronomy

Mar. 15, 2013 Rise Set
Actual Time 7:54 AM EDT 7:51 PM EDT
Civil Twilight 7:28 AM EDT 8:17 PM EDT
Nautical Twilight 6:57 AM EDT 8:48 PM EDT
Astronomical Twilight 6:27 AM EDT 9:18 PM EDT
Moon 9:49 AM EDT (3/15) 11:59 PM EDT (3/15)
Length of Visible Light 12h 49m
Length of Day
11h 56m
Waxing Crescent, 15% of the Moon is Illuminated
Mar 15
Waxing Crescent
Mar 19
First Quarter
Mar 27
Full
Apr 3
Last Quarter
Apr 10
New

Hourly Weather History & Observations

Time (EDT) Temp. Windchill Dew Point Humidity Pressure Visibility Wind Dir Wind Speed Gust Speed Precip Events Conditions
12:55 AM 35.1 °F 31.0 °F 32.2 °F 89% 30.21 in 10.0 mi SE 4.6 mph - N/A   Overcast
1:55 AM 34.2 °F 29.0 °F 31.3 °F 89% 30.18 in 10.0 mi SE 5.8 mph - N/A   Clear
2:55 AM 32.7 °F 26.4 °F 29.3 °F 87% 30.15 in 10.0 mi SSE 6.9 mph - N/A   Clear
3:55 AM 33.3 °F 27.9 °F 29.8 °F 87% 30.12 in 10.0 mi South 5.8 mph - N/A   Clear
4:55 AM 33.4 °F 27.3 °F 30.0 °F 87% 30.08 in 10.0 mi South 6.9 mph - N/A   Clear
5:55 AM 32.5 °F 26.2 °F 29.5 °F 88% 30.06 in 10.0 mi South 6.9 mph - N/A   Clear
6:55 AM 32.9 °F 27.5 °F 29.5 °F 87% 30.05 in 10.0 mi South 5.8 mph - N/A   Clear
7:55 AM 33.1 °F 28.7 °F 28.9 °F 85% 30.05 in 10.0 mi South 4.6 mph - N/A   Clear
8:55 AM 34.3 °F 31.4 °F 30.4 °F 85% 30.05 in 10.0 mi SSW 3.5 mph - N/A   Clear
9:55 AM 39.2 °F 33.0 °F 32.4 °F 76% 30.03 in 10.0 mi South 9.2 mph - N/A   Clear
10:55 AM 45.1 °F 40.8 °F 35.1 °F 68% 30.01 in 10.0 mi SW 8.1 mph - N/A   Partly Cloudy
11:55 AM 49.5 °F - 36.3 °F 61% 30.00 in 10.0 mi SW 9.2 mph - N/A   Clear
12:55 PM 52.7 °F - 37.2 °F 56% 29.99 in 10.0 mi WSW 5.8 mph - N/A   Scattered Clouds
1:55 PM 57.4 °F - 38.5 °F 49% 29.97 in 10.0 mi Variable 6.9 mph - N/A   Clear
2:55 PM 62.1 °F - 39.4 °F 43% 29.94 in 10.0 mi WSW 9.2 mph - N/A   Mostly Cloudy
3:55 PM 63.9 °F - 39.9 °F 41% 29.91 in 10.0 mi West 10.4 mph 17.3 mph N/A   Overcast
4:55 PM 65.3 °F - 40.5 °F 40% 29.89 in 10.0 mi WSW 8.1 mph - N/A   Partly Cloudy
5:55 PM 66.2 °F - 41.2 °F 40% 29.87 in 10.0 mi SW 9.2 mph - N/A   Partly Cloudy
6:55 PM 64.0 °F - 40.8 °F 43% 29.86 in 10.0 mi SW 6.9 mph - N/A   Overcast
7:55 PM 59.4 °F - 42.3 °F 53% 29.86 in 10.0 mi NNW 3.5 mph - N/A   Mostly Cloudy
8:55 PM 56.3 °F - 40.6 °F 56% 29.85 in 10.0 mi Calm Calm - N/A   Mostly Cloudy
9:55 PM 55.8 °F - 41.9 °F 60% 29.83 in 10.0 mi ESE 4.6 mph - N/A   Partly Cloudy
10:55 PM 57.0 °F - 42.1 °F 57% 29.80 in 10.0 mi SSE 6.9 mph - N/A   Partly Cloudy
11:55 PM 57.9 °F - 44.6 °F 61% 29.78 in 10.0 mi SSW 9.2 mph - N/A   Mostly Cloudy